Location: Newark
(44.6768°N, 22.5302°E)
Time: 17:00:41
(UTC+00:00)

CAS-6 - Pass Details

Date: 28 June 2022
Orbit: 613 x 634 km, 97.9° (Epoch: 19 August)

Event Time Altitude Azimuth Distance (km) Brightness Sun altitude
Exits shadow 20:43:04 35° 163° (SSE) 1,013 ? -17.6°
Maximum altitude 20:44:52 87° 81° (E) 635 ? -17.7°
Drops below altitude 10° 20:49:15 10° 348° (NNW) 2,007 ? -18.0°
Sets 20:51:27 0° 348° (NNW) 2,915 ? -18.2°
